Theta_e
324 322 327 321 303 303 299 301 305 296 295 296 298 296 290 289 291 294 293 294 296 296 300 301 320 336 339 341 342 342 342 341 341 341 341 342 342 341 341 340 340 340 340 338 337 337 338 335 334
321 322 323 314 298 295 294 296 292 290 291 297 293 293 291 285 289 289 290 294 295 297 299 302 321 337 339 339 339 339 339 340 340 340 339 338 338 337 337 336 336 337 336 334 333 336 334 332 333
321 320 311 304 299 294 288 288 291 292 292 291 290 289 287 284 289 288 292 295 296 297 298 303 318 333 338 337 337 336 336 336 336 336 336 335 333 333 332 332 333 333 332 330 331 330 331 330 331
316 311 311 298 285 283 288 287 289 290 292 290 289 285 287 290 289 292 294 295 295 296 298 303 315 323 331 332 333 332 332 331 331 331 331 330 329 328 328 328 328 329 329 328 328 327 327 327 329
315 307 296 292 282 283 286 288 289 287 287 287 288 284 285 289 292 293 293 295 293 295 298 300 310 315 322 326 328 327 327 327 326 326 326 326 325 324 324 324 324 324 324 325 325 325 324 326 329
304 304 293 288 284 284 284 285 287 287 287 286 287 286 286 291 291 292 293 294 294 294 297 299 302 308 313 317 319 321 322 322 321 320 320 320 320 320 321 320 320 320 320 322 322 322 322 325 326
301 299 291 286 283 284 284 286 284 285 286 284 286 286 286 287 290 293 293 293 294 295 296 297 299 300 304 309 311 313 313 313 313 313 312 312 312 313 314 315 316 316 317 318 318 318 319 322 321
303 299 291 289 286 283 284 285 285 285 284 288 285 286 286 287 290 293 293 293 293 293 294 296 297 298 298 298 304 305 306 306 305 304 303 305 305 305 306 307 310 312 313 313 313 315 317 318 318
302 293 284 284 287 283 285 283 286 287 285 285 286 284 286 288 290 290 291 292 293 293 292 295 295 296 297 297 297 299 299 300 300 300 301 301 297 297 298 302 304 307 309 309 309 309 312 313 315
293 286 282 286 286 283 283 284 284 284 284 283 285 287 285 287 288 287 288 288 290 290 291 293 293 294 295 295 294 295 295 295 296 297 297 297 297 297 297 300 302 301 304 307 307 307 306 303 300
288 283 286 286 287 287 281 279 282 281 279 281 282 285 286 285 286 287 288 289 289 290 291 291 293 293 293 294 294 294 295 294 294 295 297 298 297 297 296 294 293 293 299 296 299 297 296 296 296
285 288 289 288 290 288 285 283 279 281 283 284 284 285 284 285 285 285 287 288 289 289 289 290 292 292 292 292 292 293 294 294 294 294 295 295 295 295 293 292 292 292 292 292 296 293 294 294 295
287 287 288 288 288 286 286 282 282 280 284 283 285 285 285 285 285 286 287 289 290 289 290 289 291 290 291 292 291 292 292 292 293 293 294 295 294 293 293 292 291 290 290 290 291 293 291 291 292
290 289 288 290 290 288 285 282 284 285 286 285 286 286 287 286 286 288 288 288 289 290 290 290 290 291 291 290 291 290 291 291 291 291 292 293 293 292 291 290 290 290 290 289 289 290 290 289 290
292 288 288 289 291 290 290 285 282 288 287 286 287 288 288 289 289 288 289 289 290 290 291 290 289 291 290 290 290 290 290 290 290 290 291 292 292 291 292 292 291 290 290 291 291 290 292 289 290
291 290 285 287 290 290 289 282 290 290 287 287 289 289 289 290 290 289 290 290 291 291 290 290 291 290 290 290 290 290 290 290 290 291 291 291 292 292 292 291 291 291 291 291 290 290 289 289 288
287 280 282 284 287 286 286 282 290 290 288 287 289 289 289 289 291 291 290 290 290 290 290 290 290 289 289 290 290 289 290 290 290 290 291 291 292 292 292 291 289 290 290 290 289 288 288 286 287
279 279 283 282 284 284 282 282 287 289 289 288 288 288 289 289 290 292 291 290 289 289 289 289 289 288 289 289 289 290 290 290 290 289 288 290 290 290 289 288 288 289 289 289 288 288 288 286 286
284 282 282 283 285 283 283 283 286 289 288 287 288 288 289 289 291 292 293 291 290 289 288 288 288 288 288 286 286 286 286 287 287 288 289 289 289 290 289 287 288 288 287 286 287 287 286 285 286
284 282 280 283 285 284 283 282 285 287 289 289 289 289 288 289 290 291 291 291 290 290 289 288 288 288 288 288 287 288 287 287 288 289 289 290 290 290 289 287 287 286 286 286 285 285 284 283 284
282 279 278 279 283 284 282 282 281 284 288 290 291 292 291 289 288 289 289 289 290 289 289 290 289 289 289 289 290 289 288 287 287 287 287 289 290 289 288 288 287 287 286 284 284 284 283 282 282
279 283 283 282 280 277 283 276 284 282 284 288 290 291 291 290 290 289 289 288 288 291 291 291 291 290 289 290 288 287 286 285 286 286 287 288 289 289 289 289 288 287 286 285 284 285 283 282 280
282 283 281 281 280 277 281 277 287 281 281 284 287 291 292 291 290 288 288 289 289 289 291 292 292 293 292 290 289 287 285 285 286 286 287 288 288 289 289 288 287 287 287 286 284 283 283 283 282
285 282 282 280 280 279 275 275 280 282 283 284 287 289 293 293 290 290 289 288 288 289 289 289 290 291 292 290 289 287 286 286 285 286 287 287 287 288 288 289 287 287 287 286 285 285 284 283 283
282 280 280 277 276 277 277 274 281 286 288 287 286 287 289 294 292 289 287 287 287 288 288 288 288 288 289 289 288 288 288 287 286 286 287 287 287 287 288 288 287 287 287 287 286 285 284 284 283
278 277 277 268 273 275 275 274 283 287 288 285 286 286 287 290 294 292 289 288 287 287 288 288 288 288 288 289 288 288 288 288 288 288 288 288 288 288 288 288 288 288 288 288 287 285 285 285 284
278 277 276 272 263 268 276 281 286 286 286 287 286 284 286 288 289 291 290 289 288 288 288 289 288 288 288 288 288 288 288 288 288 288 288 288 289 289 288 288 288 288 288 287 286 286 285 284 285
276 277 275 275 268 268 276 276 279 283 286 287 287 288 288 287 288 289 289 289 289 289 289 289 289 289 289 288 288 288 288 288 288 288 288 288 288 289 289 288 288 288 288 287 286 285 285 284 285
273 275 275 275 275 270 270 277 285 283 285 284 286 288 288 288 289 289 289 290 290 290 289 289 289 289 289 289 289 288 288 288 288 288 288 288 289 289 288 288 288 287 287 287 286 285 284 285 284
276 276 278 273 272 273 273 272 287 285 284 283 285 287 289 290 290 290 291 290 289 290 290 289 289 289 289 290 289 288 288 288 287 288 288 288 288 288 288 288 287 287 287 287 286 285 286 284 283
Wind_Speed
18 14 4 3 2 5 10 1 10 11 7 9 10 7 7 6 7 2 8 11 14 12 13 16 27 26 8 12 15 18 18 17 17 18 19 20 21 21 20 20 19 18 18 18 16 15 17 16 16
11 15 2 3 5 8 6 14 13 12 9 6 7 7 8 5 5 4 4 14 13 12 12 15 28 13 16 18 17 20 19 20 20 21 22 22 21 21 20 19 19 18 18 17 15 17 17 16 15
12 12 3 3 4 8 4 11 10 7 11 10 3 8 5 4 5 6 10 13 12 11 12 14 26 24 22 21 21 23 22 21 21 21 22 21 20 20 19 19 17 16 18 15 16 15 16 16 16
6 3 4 5 6 5 7 6 8 4 6 10 6 6 5 7 3 9 11 16 9 10 11 15 23 26 23 23 21 22 23 21 21 22 20 20 21 19 17 16 15 16 16 16 16 16 16 15 15
6 3 4 6 4 3 4 7 5 7 2 7 9 2 4 6 7 9 9 13 9 9 9 11 18 22 23 21 21 20 21 22 22 20 21 19 17 16 15 15 15 15 15 15 15 16 16 17 18
6 3 2 6 4 1 2 4 5 2 2 3 4 2 2 4 10 11 13 7 8 8 7 9 13 16 21 20 21 20 21 22 19 16 16 16 17 16 16 16 16 15 15 15 16 15 16 17 20
8 3 4 9 2 1 2 5 5 4 1 4 1 3 2 2 7 8 12 10 5 6 7 6 8 11 15 17 20 19 18 19 17 16 16 16 16 16 16 16 16 15 15 15 16 16 16 17 20
6 3 5 4 4 2 2 1 3 3 2 4 2 1 1 2 8 5 8 10 5 7 6 7 6 7 6 8 16 15 16 16 14 11 9 13 16 16 14 14 15 16 15 14 15 17 16 16 15
7 5 4 4 2 3 1 2 2 3 2 1 2 2 3 3 4 3 2 6 6 5 6 6 7 7 6 5 8 10 12 11 10 9 11 8 4 6 8 12 13 14 15 14 13 12 14 15 13
11 6 5 6 3 3 1 2 0 2 1 2 3 3 3 2 1 1 1 4 5 6 6 6 5 6 5 6 5 6 5 4 4 5 5 3 4 3 5 5 10 11 12 13 14 14 14 8 4
8 5 2 2 0 3 3 2 1 2 5 6 3 3 2 1 2 0 2 2 4 4 4 5 5 4 5 3 4 3 2 3 3 4 4 4 4 3 3 3 3 3 7 4 7 6 5 7 5
9 9 7 3 4 4 3 0 4 6 3 2 1 2 3 3 2 1 3 2 1 3 4 4 4 4 3 2 2 2 3 2 2 4 5 3 2 4 4 3 3 4 3 5 4 4 5 6 7
10 6 6 3 2 1 2 5 5 8 6 5 4 5 6 6 5 4 4 5 3 0 3 3 3 4 3 4 2 4 3 3 3 4 5 3 3 3 3 3 3 4 3 3 4 4 5 5 5
8 12 8 5 2 2 4 2 4 2 7 5 7 9 8 8 9 8 9 7 5 3 1 1 3 3 5 3 4 3 3 2 4 3 3 4 3 2 3 3 4 4 3 2 3 3 4 5 4
10 6 8 6 4 2 1 5 8 5 8 8 10 10 10 11 10 10 8 10 10 7 4 2 5 4 4 5 4 3 2 3 3 2 3 2 3 3 3 3 3 2 2 3 4 3 3 4 4
6 5 4 4 6 6 3 7 5 9 9 9 9 8 9 10 11 10 9 9 8 7 8 6 5 6 6 5 4 3 3 3 2 2 1 1 3 3 3 3 3 3 2 2 4 3 3 3 4
2 5 5 5 3 3 4 5 7 12 11 9 9 8 9 8 10 12 11 10 10 10 9 9 8 5 5 5 4 3 4 3 3 2 2 1 1 3 4 3 2 3 3 3 3 4 3 2 2
6 6 6 7 2 2 8 15 13 13 12 11 8 8 8 9 11 10 11 10 9 10 10 9 7 6 6 3 3 3 2 3 3 3 4 4 2 3 4 3 2 2 3 3 4 3 4 2 1
7 6 8 4 4 8 6 9 9 11 11 10 9 8 9 9 9 12 12 11 10 10 10 10 8 7 5 4 3 2 3 4 4 4 5 4 3 2 4 2 2 2 3 3 2 1 4 3 3
6 9 6 5 2 6 8 17 13 9 11 13 10 9 9 9 9 12 12 13 13 12 12 11 11 11 9 6 5 4 4 4 4 4 5 6 6 5 4 5 4 4 3 3 1 2 2 2 3
4 4 5 5 11 1 9 5 1 2 5 9 11 9 10 11 10 9 13 13 12 12 12 11 11 10 9 9 6 4 3 3 3 4 4 5 6 6 5 6 4 4 3 3 2 1 2 3 1
4 4 8 8 8 4 7 6 3 3 7 9 11 12 12 10 10 12 14 13 14 15 13 14 12 12 11 10 6 6 5 7 5 5 5 6 7 7 7 7 6 5 3 5 3 2 2 2 3
4 5 4 4 6 3 6 3 8 2 6 12 14 14 14 12 12 13 14 15 15 14 13 12 14 14 13 12 10 5 6 5 4 4 8 8 8 8 8 7 7 7 5 6 6 4 4 3 3
9 7 6 3 1 4 3 4 9 3 4 2 6 17 16 14 11 11 11 11 12 11 13 12 14 14 14 12 14 13 10 9 6 7 8 7 6 7 8 8 7 6 6 7 6 6 7 5 5
4 4 4 6 5 5 5 3 13 7 7 6 5 6 13 13 13 11 11 10 12 14 13 12 14 17 16 16 16 17 16 14 14 9 8 8 8 7 10 10 9 8 8 7 6 6 6 6 5
3 2 4 4 3 6 2 7 8 1 4 1 4 1 1 11 12 14 14 13 13 15 16 16 16 18 17 17 19 16 17 12 12 12 9 9 9 10 11 12 11 11 9 8 8 5 5 6 6
1 1 1 2 2 3 5 8 13 3 3 6 3 2 7 8 9 10 11 13 13 14 17 19 20 19 20 20 17 18 17 18 15 15 11 11 12 10 12 13 14 12 11 11 9 7 7 6 6
1 1 0 3 4 5 5 3 8 6 9 10 10 7 8 6 7 7 8 10 13 16 15 16 18 22 20 21 19 18 19 19 18 14 17 16 14 15 15 15 15 14 13 11 10 7 7 8 6
1 2 1 1 3 4 3 7 6 3 2 7 8 7 7 5 7 8 8 9 11 12 14 18 19 21 20 19 19 19 19 19 17 17 18 18 16 16 16 16 15 16 15 12 11 10 8 11 9
3 2 6 5 7 4 3 9 15 8 5 5 8 9 10 8 7 8 10 10 10 12 13 16 17 17 19 19 17 18 18 17 19 20 20 18 18 17 17 16 15 16 15 14 14 14 13 12 12
Wind_Direction
310 299 314 265 244 233 239 197 77 28 67 14 28 40 84 49 27 109 338 5 335 329 336 326 335 333 111 86 84 79 78 78 76 76 75 69 64 62 61 58 61 70 71 63 62 57 66 62 54
298 294 215 291 223 229 188 23 54 37 16 331 32 335 44 68 25 58 358 338 336 335 336 337 351 11 79 72 74 76 72 71 70 68 67 66 62 60 58 54 50 55 61 60 63 56 62 60 59
270 256 245 234 223 240 74 32 41 50 28 18 58 44 23 36 13 0 343 329 339 346 344 347 3 17 70 74 75 73 66 64 66 65 63 63 61 58 58 56 51 54 63 65 68 66 66 64 65
272 198 280 227 25 41 62 45 352 33 46 43 339 60 89 52 20 332 350 323 357 353 357 355 8 16 51 62 67 72 71 65 62 60 60 59 56 55 61 64 60 62 66 65 68 68 66 62 64
234 267 218 88 70 32 355 12 8 58 59 12 357 77 81 72 7 342 347 326 7 357 7 5 11 18 35 57 62 67 72 68 60 58 59 62 65 63 66 65 66 68 67 66 67 69 68 68 66
42 52 251 104 91 157 144 335 314 96 113 26 76 304 125 17 15 344 332 344 356 4 21 15 13 21 35 43 57 60 65 68 66 66 69 69 66 64 64 65 63 63 66 66 64 66 71 74 75
128 53 64 97 91 328 11 321 21 339 297 87 313 285 231 336 357 349 328 326 20 27 31 14 22 25 27 41 50 58 65 73 71 69 69 67 66 64 61 62 64 65 67 71 70 73 77 79 81
352 72 88 47 162 235 24 349 309 7 33 118 113 213 283 348 336 333 326 337 11 33 37 32 39 42 32 32 49 52 59 66 71 63 55 79 72 63 60 58 64 66 70 72 74 74 81 82 80
308 89 61 34 43 103 239 288 26 278 290 334 108 264 312 273 306 336 355 3 347 40 50 45 43 34 31 62 50 50 53 58 51 41 46 47 58 79 66 65 66 70 70 74 76 84 86 79 64
16 62 30 345 355 121 161 256 225 276 279 238 200 172 273 304 331 202 70 61 339 8 49 50 53 61 36 55 57 52 47 39 26 36 18 79 83 91 105 91 68 56 67 71 69 60 45 45 51
24 64 182 346 96 142 177 250 338 215 240 227 189 161 180 273 269 258 199 117 330 22 47 41 55 71 76 61 39 52 41 50 357 20 21 21 37 45 45 45 21 21 45 44 50 48 40 35 39
81 38 19 329 15 329 350 309 259 216 260 283 218 229 185 207 212 197 260 276 342 22 37 71 54 75 49 100 84 54 60 48 57 11 18 32 42 55 55 41 37 36 33 49 72 56 57 51 55
104 150 105 98 70 143 244 284 252 236 220 206 222 229 228 203 191 203 222 247 266 303 19 42 88 79 88 96 95 75 64 43 28 30 22 22 40 68 80 74 49 45 35 52 65 78 78 58 64
141 139 157 199 170 171 290 262 343 274 164 207 232 235 231 224 213 198 197 203 207 232 249 51 85 128 115 97 92 112 99 88 73 53 27 24 23 65 66 80 68 49 36 72 83 98 110 105 80
165 128 172 179 170 203 223 234 233 220 183 221 228 230 218 227 215 220 212 206 184 194 224 220 157 162 135 137 136 119 122 89 97 105 87 36 82 61 83 71 77 69 50 42 92 73 94 99 107
259 217 137 149 174 119 140 289 162 149 185 227 236 227 225 227 220 218 208 202 207 196 198 212 209 177 172 167 143 156 133 134 133 113 124 306 120 111 84 82 78 55 43 94 60 80 68 88 120
331 351 357 143 154 163 170 277 143 164 192 237 240 213 221 219 210 205 200 205 193 194 198 214 219 193 181 152 134 150 147 144 139 120 132 275 98 104 91 69 39 57 53 33 76 48 75 98 76
333 341 332 350 91 278 265 257 262 172 198 217 233 213 215 224 220 212 208 206 198 201 202 205 202 190 177 152 147 157 175 173 170 163 177 186 173 150 134 129 103 84 74 62 52 87 47 67 101
278 273 296 6 95 319 272 266 262 183 193 220 221 220 209 214 209 186 197 202 206 209 208 209 202 198 183 178 171 186 201 194 195 193 174 171 187 175 129 119 100 102 106 101 115 103 107 25 8
292 315 12 293 100 305 299 292 264 218 203 203 217 225 212 200 198 175 180 193 204 210 210 209 206 196 199 192 206 184 177 197 183 170 187 192 180 196 171 174 184 150 124 102 85 65 142 113 29
61 15 3 300 310 300 301 272 279 238 170 200 221 224 210 198 196 188 185 191 195 208 211 217 219 214 210 215 212 212 196 165 173 183 189 200 191 198 195 185 177 185 155 161 167 150 86 145 49
318 25 323 325 355 333 9 283 297 172 230 206 220 221 223 215 200 187 184 190 196 203 199 206 211 216 218 221 234 219 219 205 198 186 183 188 194 197 199 189 179 187 187 172 183 181 153 135 159
285 344 295 300 323 52 340 56 260 104 240 234 222 221 222 217 202 200 202 198 194 192 201 203 207 208 206 203 221 221 226 219 215 206 190 189 195 194 193 193 188 193 186 186 181 173 190 184 164
299 292 200 231 225 7 234 98 286 209 206 163 200 215 213 211 215 210 205 194 200 197 195 197 203 213 211 210 206 201 210 228 232 208 198 197 192 206 198 197 191 198 190 192 188 194 195 197 198
275 316 335 351 5 226 99 343 247 282 277 224 243 221 201 205 204 206 202 204 203 202 202 201 204 213 209 211 213 215 213 207 220 214 198 193 202 201 208 197 202 204 202 193 186 191 203 202 202
355 30 134 288 308 289 7 248 260 290 316 158 356 180 260 201 207 205 204 205 206 204 201 205 215 218 215 216 220 218 218 222 217 213 203 206 206 210 201 202 202 206 201 198 194 190 196 200 200
345 357 320 99 107 62 247 284 305 356 31 357 226 218 257 261 216 208 208 209 210 215 218 211 207 215 216 216 216 218 217 217 223 219 211 204 207 206 205 201 204 204 204 197 192 198 205 206 206
307 322 57 344 324 286 261 279 239 340 5 357 355 318 285 229 250 243 222 219 217 220 219 217 220 221 218 218 216 216 218 218 217 217 220 215 208 207 203 200 199 202 205 200 193 194 203 206 216
85 195 352 11 170 218 316 265 222 10 349 312 314 330 326 330 228 233 236 228 226 224 217 223 222 220 223 223 221 219 219 217 217 218 220 217 211 208 208 201 198 198 200 197 196 201 196 206 209
81 120 165 135 274 250 194 262 285 283 314 269 305 290 286 249 250 234 223 221 223 224 227 225 229 227 229 227 224 227 227 221 219 220 221 217 216 213 210 203 198 199 198 197 197 201 206 205 206